Hobart, OK

12:50 PM CST on November 23, 2017 (GMT -0600)
Hobart Municipal

Weather History for KHBR - March, 2013

Change the Weather History Date:

Sunday, March 31, 2013

  Actual Average Record
Temperature  
Mean Temperature 60 °F -  
Max Temperature 69 °F 65 °F 86 °F (2015)
Min Temperature 50 °F 41 °F 28 °F (2009)
Degree Days  
Heating Degree Days 5    
Growing Degree Days 10 (Base 50)    
Moisture  
Dew Point 47 °F    
Average Humidity 69    
Maximum Humidity 89    
Minimum Humidity 39    
Precipitation  
Precipitation 0.04 in - - ()
Sea Level Pressure  
Sea Level Pressure 29.98 in    
Wind  
Wind Speed 16 mph (NE)    
Max Wind Speed 29 mph    
Max Gust Speed 39 mph    
Visibility 9 miles    
Events Rain , Thunderstorm    
Averages and records for this station are not official NWS values.
T = Trace of Precipitation, MM = Missing Value Source: NWS Daily Summary

Daily Weather History Graph

Daily Weather History Graph

Search for Another Location

Airport or City:

Trip Planner

Search our weather history database for the weather conditions in past years. The results will help you decide how hot, cold, wet, or windy it might be!

Date:

Astronomy

Mar. 31, 2013 Rise Set
Actual Time 7:24 AM CDT 7:56 PM CDT
Civil Twilight 6:58 AM CDT 8:22 PM CDT
Nautical Twilight 6:28 AM CDT 8:52 PM CDT
Astronomical Twilight 5:58 AM CDT 9:23 PM CDT
Moon No Moon Rise 10:23 AM CDT (3/31)
Length of Visible Light 13h 23m
Length of Day
12h 32m
Waning Gibbous, 77% of the Moon is Illuminated
Mar 31
Waning Gibbous
Apr 2
Last Quarter
Apr 10
New
Apr 18
First Quarter
Apr 25
Full

Hourly Weather History & Observations

Time (CDT) Temp. Dew Point Humidity Pressure Visibility Wind Dir Wind Speed Gust Speed Precip Events Conditions
12:53 AM 64.0 °F 57.0 °F 78% 29.84 in 8.0 mi South 12.7 mph - N/A   Clear
1:53 AM 61.0 °F 57.0 °F 87% 29.85 in 7.0 mi East 6.9 mph - N/A   Clear
2:53 AM 61.0 °F 55.9 °F 83% 29.88 in 7.0 mi North 10.4 mph - N/A   Clear
3:53 AM 62.1 °F 51.1 °F 67% 29.90 in 9.0 mi NNE 26.5 mph 34.5 mph N/A   Overcast
4:34 AM 57.2 °F 50.0 °F 77% 30.00 in 8.0 mi NNE 28.8 mph 39.1 mph N/A   Overcast
4:42 AM 55.4 °F 50.0 °F 82% 29.99 in 7.0 mi NNE 25.3 mph 35.7 mph 0.00 in Rain Light Rain
4:53 AM 54.0 °F 48.9 °F 83% 29.96 in 7.0 mi NE 26.5 mph 36.8 mph 0.01 in Rain , Thunderstorm Light Rain
5:12 AM 53.6 °F 48.2 °F 82% 30.02 in 10.0 mi NNE 21.9 mph 32.2 mph 0.00 in   Overcast
5:39 AM 53.6 °F 48.2 °F 82% 29.99 in 9.0 mi ENE 24.2 mph 33.4 mph 0.00 in Rain , Thunderstorm Light Thunderstorms and Rain
5:53 AM 53.1 °F 48.9 °F 86% 29.97 in 7.0 mi NE 21.9 mph 28.8 mph 0.00 in Rain , Thunderstorm Light Rain
6:08 AM 53.6 °F 48.2 °F 82% 30.03 in 10.0 mi NNE 19.6 mph - 0.00 in Rain Light Rain
6:53 AM 52.0 °F 48.9 °F 89% 29.94 in 10.0 mi ENE 16.1 mph 26.5 mph 0.01 in   Partly Cloudy
7:53 AM 53.1 °F 48.0 °F 83% 30.02 in 10.0 mi North 18.4 mph - 0.00 in Rain Light Rain
8:30 AM 51.8 °F 48.2 °F 88% 30.02 in 4.0 mi NE 17.3 mph 24.2 mph 0.02 in Rain Light Rain
8:53 AM 52.0 °F 48.9 °F 89% 29.98 in 10.0 mi NE 18.4 mph 27.6 mph 0.02 in   Scattered Clouds
9:53 AM 54.0 °F 48.9 °F 83% 30.00 in 10.0 mi NNE 19.6 mph 26.5 mph N/A   Partly Cloudy
10:53 AM 59.0 °F 48.0 °F 67% 30.00 in 10.0 mi NNE 26.5 mph 34.5 mph N/A   Clear
11:53 AM 62.1 °F 48.0 °F 60% 30.03 in 10.0 mi NNE 17.3 mph 27.6 mph N/A   Clear
12:53 PM 64.0 °F 46.0 °F 52% 30.06 in 10.0 mi NE 17.3 mph - N/A   Clear
1:53 PM 66.0 °F 45.0 °F 47% 30.05 in 10.0 mi NNE 8.1 mph 19.6 mph N/A   Partly Cloudy
2:53 PM 66.9 °F 44.1 °F 44% 30.03 in 10.0 mi NE 9.2 mph - N/A   Clear
3:53 PM 68.0 °F 43.0 °F 40% 30.00 in 10.0 mi Variable 3.5 mph - N/A   Partly Cloudy
4:53 PM 69.1 °F 43.0 °F 39% 29.99 in 10.0 mi NE 8.1 mph - N/A   Clear
5:53 PM 68.0 °F 42.1 °F 39% 29.97 in 10.0 mi Variable 5.8 mph - N/A   Clear
6:53 PM 66.9 °F 41.0 °F 39% 29.97 in 10.0 mi NNE 3.5 mph - N/A   Clear
7:53 PM 63.0 °F 42.1 °F 46% 29.97 in 10.0 mi East 3.5 mph - N/A   Clear
8:53 PM 57.0 °F 41.0 °F 55% 29.98 in 10.0 mi SSE 4.6 mph - N/A   Clear
9:53 PM 52.0 °F 41.0 °F 66% 30.00 in 10.0 mi South 8.1 mph - N/A   Clear
10:53 PM 51.1 °F 42.1 °F 71% 30.01 in 10.0 mi South 10.4 mph - N/A   Clear
11:53 PM 50.0 °F 41.0 °F 71% 30.00 in 10.0 mi North - - N/A   Clear